Weather History for Auburn, AL

Change the Weather History Date:

Wednesday, May 14, 2014

  Actual Average Record
Temperature  
Mean Temperature 69 °F -  
Max Temperature 75 °F - 91 °F (1998)
Min Temperature 63 °F - 39 °F (1960)
Cooling Degree Days 4    
Month to date cooling degree days 67  
Year to date cooling degree days 103  
Growing Degree Days 18 (Base 50)    
Moisture  
Dew Point 64 °F    
Average Humidity 86    
Maximum Humidity 100    
Minimum Humidity 64    
Precipitation  
Precipitation 1.53 in - 1.53 in (2014)
Month to date precipitation 2.42  
Year to date precipitation 24.77  
Sea Level Pressure  
Sea Level Pressure 30.06 in    
Wind  
Wind Speed 6 mph (SE)    
Max Wind Speed 10 mph    
Max Gust Speed -    
Visibility 9 miles    
Events Thunderstorm    
T = Trace of Precipitation, MM = Missing Value Source: NWS Daily Summary

Daily Weather History Graph

Daily Weather History Graph

Search for Another Location

Airport:

Trip Planner

Search our weather history database for the weather conditions in past years. The results will help you decide how hot, cold, wet, or windy it might be!

Date:

Astronomy

May. 14, 2014 Rise Set
Actual Time 5:43 AM CDT 7:32 PM CDT
Civil Twilight 5:16 AM CDT 7:59 PM CDT
Nautical Twilight 4:44 AM CDT 8:32 PM CDT
Astronomical Twilight 4:09 AM CDT 9:07 PM CDT
Moon 7:38 PM CDT (5/14) 5:39 AM CDT (5/14)
Length of Visible Light 14h 42m
Length of Day
13h 48m
Full, 100% of the Moon is Illuminated
May 14
Full
May 14
Full
May 21
Last Quarter
May 28
New
Jun 5
First Quarter

Hourly Weather History & Observations

Time (CDT) Temp. Dew Point Humidity Pressure Visibility Wind Dir Wind Speed Gust Speed Precip Events Conditions
12:15 AM 69.8 °F 60.8 °F 73% 30.13 in 10.0 mi East 5.8 mph - N/A   Clear
12:35 AM 69.8 °F 59.0 °F 68% 30.12 in 10.0 mi East 3.5 mph - N/A   Clear
12:55 AM 69.8 °F 60.8 °F 73% 30.13 in 10.0 mi East 4.6 mph - N/A   Clear
1:15 AM 69.8 °F 60.8 °F 73% 30.12 in 10.0 mi East 5.8 mph - N/A   Partly Cloudy
1:35 AM 71.6 °F 59.0 °F 64% 30.13 in 10.0 mi ESE 4.6 mph - N/A   Scattered Clouds
1:55 AM 69.8 °F 60.8 °F 73% 30.12 in 10.0 mi ESE 6.9 mph - N/A   Partly Cloudy
2:15 AM 69.8 °F 60.8 °F 73% 30.12 in 10.0 mi SE 8.1 mph - N/A   Clear
2:35 AM 68.0 °F 60.8 °F 78% 30.11 in 10.0 mi SE 6.9 mph - N/A   Clear
2:55 AM 68.0 °F 60.8 °F 78% 30.11 in 10.0 mi SE 8.1 mph - N/A   Clear
3:15 AM 66.2 °F 60.8 °F 83% 30.11 in 10.0 mi SE 5.8 mph - N/A   Clear
3:35 AM 66.2 °F 60.8 °F 83% 30.11 in 10.0 mi ESE 8.1 mph - N/A   Clear
4:15 AM 66.2 °F 60.8 °F 83% 30.11 in 10.0 mi SE 5.8 mph - N/A   Clear
4:35 AM 66.2 °F 60.8 °F 83% 30.11 in 10.0 mi ESE 6.9 mph - N/A   Clear
4:55 AM 66.2 °F 60.8 °F 83% 30.11 in 10.0 mi SE 6.9 mph - N/A   Clear
5:15 AM 66.2 °F 60.8 °F 83% 30.11 in 10.0 mi SE 6.9 mph - N/A   Clear
5:35 AM 66.2 °F 60.8 °F 83% 30.11 in 10.0 mi SE 5.8 mph - N/A   Clear
5:55 AM 64.4 °F 62.6 °F 94% 30.11 in 10.0 mi SE 6.9 mph - N/A   Clear
6:15 AM 64.4 °F 62.6 °F 94% 30.11 in 10.0 mi SE 5.8 mph - N/A   Clear
6:35 AM 66.2 °F 62.6 °F 88% 30.11 in 10.0 mi SE 8.1 mph - N/A   Clear
7:15 AM 66.2 °F 62.6 °F 88% 30.12 in 10.0 mi SSE 8.1 mph - N/A   Clear
7:35 AM 66.2 °F 62.6 °F 88% 30.12 in 10.0 mi SSE 5.8 mph - N/A   Clear
7:55 AM 68.0 °F 64.4 °F 88% 30.11 in 10.0 mi SSE 6.9 mph - N/A   Clear
8:15 AM 69.8 °F 64.4 °F 83% 30.12 in 10.0 mi SE 8.1 mph - N/A   Partly Cloudy
8:35 AM 69.8 °F 64.4 °F 83% 30.11 in 10.0 mi SE 8.1 mph - N/A   Clear
8:55 AM 71.6 °F 64.4 °F 78% 30.11 in 10.0 mi SSE 4.6 mph - N/A   Clear
10:15 AM 71.6 °F 64.4 °F 78% 30.12 in 10.0 mi SSE 11.5 mph - N/A   Overcast
10:35 AM 73.4 °F 66.2 °F 78% 30.12 in 10.0 mi SSE 11.5 mph - N/A   Overcast
10:55 AM 73.4 °F 66.2 °F 78% 30.11 in 10.0 mi SSE 10.4 mph - N/A   Mostly Cloudy
11:15 AM 73.4 °F 64.4 °F 73% 30.11 in 10.0 mi SSE 10.4 mph - N/A   Mostly Cloudy
11:35 AM 73.4 °F 66.2 °F 78% 30.09 in 10.0 mi SSE 10.4 mph - N/A Thunderstorm Thunderstorm
11:55 AM 73.4 °F 66.2 °F 78% 30.09 in 9.0 mi SSE 9.2 mph - N/A Thunderstorm Thunderstorm
12:15 PM 73.4 °F 66.2 °F 78% 30.07 in 10.0 mi SE 6.9 mph - N/A Thunderstorm Mostly Cloudy
12:35 PM 73.4 °F 66.2 °F 78% 30.06 in 10.0 mi ESE 9.2 mph - N/A Thunderstorm Mostly Cloudy
12:55 PM 73.4 °F 66.2 °F 78% 30.05 in 10.0 mi East 8.1 mph - N/A Thunderstorm Mostly Cloudy
1:15 PM 73.4 °F 66.2 °F 78% 30.04 in 10.0 mi SSE 5.8 mph - N/A   Scattered Clouds
1:35 PM 73.4 °F 66.2 °F 78% 30.04 in 10.0 mi SE 4.6 mph - N/A   Clear
1:55 PM 71.6 °F 66.2 °F 83% 30.02 in 10.0 mi SE 3.5 mph - 0.01 in   Scattered Clouds
2:15 PM 71.6 °F 66.2 °F 83% 30.02 in 10.0 mi Calm Calm - N/A Thunderstorm Mostly Cloudy
2:35 PM 71.6 °F 66.2 °F 83% 30.02 in 6.0 mi East 3.5 mph - 0.02 in   Overcast
2:55 PM 71.6 °F 66.2 °F 83% 30.02 in 3.0 mi Calm Calm - 0.06 in   Mostly Cloudy
3:15 PM 69.8 °F 66.2 °F 88% 29.99 in 3.0 mi Calm Calm - 0.10 in   Overcast
3:35 PM 69.8 °F 66.2 °F 88% 29.99 in 6.0 mi Calm Calm - 0.16 in   Mostly Cloudy
3:55 PM 69.8 °F 68.0 °F 94% 29.99 in 5.0 mi WNW 4.6 mph - 0.28 in   Overcast
4:15 PM 69.8 °F 68.0 °F 94% 29.98 in 4.0 mi North 3.5 mph - 0.15 in   Overcast
4:35 PM 69.8 °F 66.2 °F 88% 30.00 in 5.0 mi SSW 5.8 mph - 0.25 in   Overcast
4:55 PM 68.0 °F 66.2 °F 94% 29.99 in 2.0 mi SE 5.8 mph - 0.61 in   Overcast
5:15 PM 66.2 °F 64.4 °F 94% 29.98 in 4.0 mi East 3.5 mph - 0.08 in   Overcast
5:35 PM 66.2 °F 66.2 °F 100% 29.99 in 3.0 mi Calm Calm - 0.21 in   Mostly Cloudy
5:55 PM 66.2 °F 66.2 °F 100% 29.98 in 3.0 mi Calm Calm - 0.30 in   Overcast
6:15 PM 66.2 °F 66.2 °F 100% 29.98 in 5.0 mi East 3.5 mph - 0.02 in   Overcast
6:55 PM 66.2 °F 64.4 °F 94% 29.97 in 4.0 mi WSW 8.1 mph - 0.05 in   Overcast
7:15 PM 66.2 °F 64.4 °F 94% 29.98 in 10.0 mi NW 8.1 mph - N/A   Mostly Cloudy
7:35 PM 66.2 °F 64.4 °F 94% 29.99 in 10.0 mi NW 6.9 mph - 0.01 in   Mostly Cloudy
7:55 PM 66.2 °F 64.4 °F 94% 30.02 in 10.0 mi SSW 8.1 mph - 0.05 in   Overcast
8:15 PM 66.2 °F 64.4 °F 94% 30.00 in 9.0 mi Calm Calm - 0.03 in   Overcast
8:35 PM 66.2 °F 64.4 °F 94% 30.02 in 10.0 mi SSW 5.8 mph - 0.07 in   Overcast
8:55 PM 66.2 °F 64.4 °F 94% 30.02 in 10.0 mi South 6.9 mph - 0.07 in   Overcast
9:15 PM 64.4 °F 64.4 °F 100% 30.02 in 10.0 mi South 6.9 mph - 0.01 in   Mostly Cloudy
9:35 PM 64.4 °F 64.4 °F 100% 30.02 in 10.0 mi SSE 4.6 mph - 0.02 in   Mostly Cloudy
9:55 PM 64.4 °F 64.4 °F 100% 30.01 in 10.0 mi SE 3.5 mph - 0.02 in   Overcast
10:15 PM 64.4 °F 64.4 °F 100% 30.02 in 10.0 mi SSE 5.8 mph - 0.02 in   Overcast
10:35 PM 64.4 °F 62.6 °F 94% 30.04 in 10.0 mi SSW 10.4 mph - 0.05 in   Overcast
10:55 PM 64.4 °F 62.6 °F 94% 30.02 in 10.0 mi South 6.9 mph - 0.06 in   Overcast
11:15 PM 64.4 °F 62.6 °F 94% 30.00 in 10.0 mi South 5.8 mph - 0.01 in   Overcast
11:35 PM 64.4 °F 62.6 °F 94% 29.99 in 10.0 mi South 5.8 mph - 0.02 in   Mostly Cloudy
11:55 PM 64.4 °F 62.6 °F 94% 29.99 in 10.0 mi SSW 6.9 mph - 0.02 in   Scattered Clouds